Date,TemperatureHighF,TemperatureAvgF,TemperatureLowF,DewpointHighF,DewpointAvgF,DewpointLowF,HumidityHigh,HumidityAvg,HumidityLow,PressureMaxIn,PressureMinIn,WindSpeedMaxMPH,WindSpeedAvgMPH,GustSpeedMaxMPH,PrecipitationSumIn
2013-1-1,-200,0,200,-100,-100,-100,0,0,100,0.00,40.00,8,3,0,0.00
2013-1-2,-200,0,200,-100,-100,-100,0,0,100,0.00,40.00,15,3,0,0.00
2013-1-3,-200,0,200,-100,-100,-100,0,0,100,0.00,40.00,8,2,0,0.00
2013-1-4,-200,0,200,-100,-100,-100,0,0,100,0.00,40.00,4,2,0,0.00
2013-1-5,-200,0,200,-100,-100,-100,0,0,100,0.00,40.00,6,2,0,0.00
2013-1-6,-200,0,200,-100,-100,-100,0,0,100,0.00,40.00,6,2,0,0.00
2013-1-7,-200,0,200,-100,-100,-100,0,0,100,0.00,40.00,12,2,0,0.00
2013-1-8,-200,0,200,-100,-100,-100,0,0,100,0.00,40.00,7,2,0,0.00
2013-1-9,-200,0,200,-100,-100,-100,0,0,100,0.00,40.00,10,4,0,0.00
2013-1-10,-200,0,200,-100,-100,-100,0,0,100,0.00,40.00,13,4,0,0.00
2013-1-11,-200,0,200,-100,-100,-100,0,0,100,0.00,40.00,8,2,0,0.00
2013-1-12,-200,0,200,-100,-100,-100,0,0,100,0.00,40.00,9,4,0,0.00
2013-1-13,-200,0,200,-100,-100,-100,0,0,100,0.00,40.00,9,3,0,0.00
2013-1-14,-200,0,200,-100,-100,-100,0,0,100,0.00,40.00,7,3,0,0.00
2013-1-15,-200,0,200,-100,-100,-100,0,0,100,0.00,40.00,6,2,0,0.00
2013-1-16,-200,0,200,-100,-100,-100,0,0,100,0.00,40.00,10,4,0,0.00
2013-1-17,-200,0,200,-100,-100,-100,0,0,100,0.00,40.00,15,5,0,0.00
2013-1-18,-200,0,200,-100,-100,-100,0,0,100,0.00,40.00,11,3,0,0.00
2013-1-19,-200,0,200,-100,-100,-100,0,0,100,0.00,40.00,5,1,0,0.00
2013-1-20,-200,0,200,-100,-100,-100,0,0,100,0.00,40.00,4,1,0,0.00
2013-1-21,-200,0,200,-100,-100,-100,0,0,100,0.00,40.00,14,2,0,0.00
2013-1-22,-200,0,200,-100,-100,-100,0,0,100,0.00,40.00,7,2,0,0.00
2013-1-23,-200,0,200,-100,-100,-100,0,0,100,0.00,40.00,5,2,0,0.00
2013-1-24,-200,0,200,-100,-100,-100,0,0,100,0.00,40.00,11,2,0,0.00
2013-1-25,-200,0,200,-100,-100,-100,0,0,100,0.00,40.00,5,2,0,0.00
2013-1-26,-200,0,200,-100,-100,-100,0,0,100,0.00,40.00,7,2,0,0.00
2013-1-27,-200,0,200,-100,-100,-100,0,0,100,0.00,40.00,8,3,0,0.00
2013-1-28,-200,0,200,-100,-100,-100,0,0,100,0.00,40.00,7,3,0,0.00
2013-1-29,-200,0,200,-100,-100,-100,0,0,100,0.00,40.00,11,5,0,0.00
2013-1-30,-200,0,200,-100,-100,-100,0,0,100,0.00,40.00,17,7,0,0.00
2013-1-31,-200,0,200,-100,-100,-100,0,0,100,0.00,40.00,8,3,0,0.00